Hourly Data Report for April 04, 2006

TORONTO CITY
ONTARIO

43°40'00.000" N
79°24'00.000" W
112.50 m
6158355
71508
XTO

Download Data

Hourly Data (April 2006)
Hourly Data Report for April 4, 2006
TIME
LST
Temp Definition
°C
Dew Point Definition
°C
Rel Hum Definition
%
Precip. Amount Definition
mm

Wind Dir Definition
10's deg

Wind Spd Definition
km/h
Visibility Definition
km
Stn Press Definition
kPa
Hmdx Definition


Wind Chill Definition


Weather Definition


00:00 4.2 0.0 74   LegendMM LegendMM   99.10     LegendNANA
01:00 3.6 -0.9 72   LegendMM LegendMM   99.18     LegendNANA
02:00 3.3 -2.1 68   LegendMM LegendMM   99.22     LegendNANA
03:00 2.3 -4.0 63   LegendMM LegendMM   99.27     LegendNANA
04:00 1.6 -4.9 62   LegendMM LegendMM   99.33     LegendNANA
05:00 1.1 -4.5 66   LegendMM LegendMM   99.43     LegendNANA
06:00 0.8 -4.5 68   LegendMM LegendMM   99.49     LegendNANA
07:00 1.4 -3.9 68   LegendMM LegendMM   99.53     LegendNANA
08:00 3.3 -3.0 63   LegendMM LegendMM   99.50     LegendNANA
09:00 4.3 -3.9 55   LegendMM LegendMM   99.46     LegendNANA
10:00 4.9 -5.2 48   LegendMM LegendMM   99.46     LegendNANA
11:00 5.5 -4.3 49   LegendMM LegendMM   99.41     LegendNANA
12:00 5.6 -4.9 47   LegendMM LegendMM   99.36     LegendNANA
13:00 5.7 -4.3 49   LegendMM LegendMM   99.30     LegendNANA
14:00 6.0 -4.0 49   LegendMM LegendMM   99.18     LegendNANA
15:00 5.6 -1.4 61   LegendMM LegendMM   99.15     LegendNANA
16:00 2.8 -2.5 68   LegendMM LegendMM   99.23     LegendNANA
17:00 1.4 -7.2 53   LegendMM LegendMM   99.32     LegendNANA
18:00 0.8 -8.4 50   LegendMM LegendMM   99.35     LegendNANA
19:00 0.1 -7.2 58   LegendMM LegendMM   99.36     LegendNANA
20:00 -0.3 -6.7 62   LegendMM LegendMM   99.35     LegendNANA
21:00 -0.1 -7.9 56   LegendMM LegendMM   99.33     LegendNANA
22:00 -0.5 -6.0 66   LegendMM LegendMM   99.25     LegendNANA
23:00 -0.4 -5.9 66   LegendMM LegendMM   99.17     LegendNANA

Notes on Data Quality.

Legend

  • E = Estimated
  • M = Missing
  • NA = Not Available*
  • [empty] = Indicates an unobserved value
Date modified: